星链-11158 (STARLINK-11158)

导读 | 豆包AI

STARLINK-11158是美国SpaceX公司星链星座的一颗低轨互联网通信卫星,于2024年8月10日由美国发射升空。星链项目计划在近地轨道部署数万颗卫星,旨在为全球提供高速低延迟的宽带互联网服务,尤其覆盖地面网络难以抵达的偏远区域。作为星链庞大星座的组成部分,该卫星运行在低地轨道,助力星座持续扩展全球网络覆盖能力,推动太空互联网基础设施建设,同时也引发了关于太空交通与天文观测的相关讨论。

基本信息
目录编号:
60403
目录名称:
STARLINK-11158
国际标识:
2024-141F
轨道中心:
EARTH
卫星名称:
星链-11158 (STARLINK-11158)
卫星全名:
星链-11158 (STARLINK-11158)
卫星状态:
在轨 (已飞行653 天)
发射日期:
2024-08-10 UTC
国别 :
美国 (US)
星等 :
--
轨道信息
数据来源 国际轨道数据
星历时间: 2026-05-24T12:09:37+0800
1天前
查看轨道信息
半长轴: 6737.86km
偏心率: 0.0000889
轨道倾角: 53.158°
近地点辐角 97.899°
升交点赤经 74.509°
平近点角 262.213°
近地点: 359.124km
远地点: 360.322km
周期: 91.737分钟
每日圈数: 15.697114
详细信息
卫星平台:
Starlink v2.0 mini
运营商:
太空探索技术公司
运营商所在国:
美国
制造商(研发单位):
太空探索技术公司
制造商所在国:
美国
使用方式:
暂无
卫星简介
星链(Starlink)计划是由太空探索技术公司(SpaceX)提出的一个巨型低轨卫星互联网星座项目,计划在2019年至2024年间在太空搭建由约1.2万颗卫星组成的“星链”网络,其中1584颗将部署在地球上空550千米处的近地轨道,并从2020年开始工作。该卫星仍在工作。
2D轨道图
3D轨道图
轨道高度分析图
轨道倾角分析图
轨道综合分析图
查看轨道综合分析图